Time,TemperatureF,DewpointF,PressureIn,WindDirection,WindDirectionDegrees,WindSpeedMPH,WindSpeedGustMPH,Humidity,HourlyPrecipIn,Conditions,Clouds,dailyrainin,SoftwareType,DateUTC
2013-04-05 00:00:00,40.6,39.5,29.86,East,97,0.0,2.0,96,0.00,,,0.67,Wunderground v.1.15,2013-04-05 04:00:00,
2013-04-05 00:05:00,40.7,39.6,29.86,ENE,59,0.0,2.0,96,0.00,,,0.00,Wunderground v.1.15,2013-04-05 04:05:00,
2013-04-05 00:10:00,40.7,39.6,29.86,NE,50,0.0,2.0,96,0.00,,,0.00,Wunderground v.1.15,2013-04-05 04:10:00,
2013-04-05 00:20:00,40.7,39.6,29.85,East,101,0.0,2.0,96,0.00,,,0.00,Wunderground v.1.15,2013-04-05 04:20:00,
2013-04-05 00:25:00,40.8,39.7,29.85,West,281,0.0,2.0,96,0.00,,,0.00,Wunderground v.1.15,2013-04-05 04:25:00,
2013-04-05 00:30:00,40.8,39.7,29.86,NW,325,0.0,2.0,96,0.00,,,0.01,Wunderground v.1.15,2013-04-05 04:30:00,
2013-04-05 00:35:00,40.9,39.8,29.86,NW,307,0.0,2.0,96,0.00,,,0.01,Wunderground v.1.15,2013-04-05 04:35:00,
2013-04-05 00:40:00,40.8,39.7,29.86,NNW,339,0.0,2.0,96,0.00,,,0.01,Wunderground v.1.15,2013-04-05 04:40:00,
2013-04-05 00:45:00,40.8,39.7,29.86,North,360,0.0,2.0,96,0.00,,,0.01,Wunderground v.1.15,2013-04-05 04:45:00,
2013-04-05 00:55:00,40.8,39.7,29.86,NNW,342,0.0,2.0,96,0.00,,,0.01,Wunderground v.1.15,2013-04-05 04:55:00,
2013-04-05 01:00:00,40.8,39.7,29.87,East,86,0.0,2.0,96,0.00,,,0.02,Wunderground v.1.15,2013-04-05 05:00:00,
2013-04-05 01:05:00,40.8,39.7,29.86,NNW,341,0.0,2.0,96,0.00,,,0.02,Wunderground v.1.15,2013-04-05 05:05:00,
2013-04-05 01:10:00,40.7,39.6,29.86,NNW,341,0.0,2.0,96,0.00,,,0.02,Wunderground v.1.15,2013-04-05 05:10:00,
2013-04-05 01:15:00,40.7,39.6,29.86,NW,324,0.0,2.0,96,0.00,,,0.02,Wunderground v.1.15,2013-04-05 05:15:00,
2013-04-05 01:25:00,40.7,39.9,29.86,North,350,0.0,2.0,97,0.00,,,0.02,Wunderground v.1.15,2013-04-05 05:25:00,
2013-04-05 01:30:00,40.6,39.8,29.86,NW,319,0.0,2.0,97,0.00,,,0.02,Wunderground v.1.15,2013-04-05 05:30:00,
2013-04-05 01:35:00,40.6,39.8,29.86,NNE,32,0.0,2.0,97,0.00,,,0.02,Wunderground v.1.15,2013-04-05 05:35:00,
2013-04-05 01:40:00,40.6,39.8,29.87,NW,320,0.0,2.0,97,0.00,,,0.02,Wunderground v.1.15,2013-04-05 05:40:00,
2013-04-05 01:45:00,40.6,39.8,29.86,NW,319,0.0,2.0,97,0.00,,,0.02,Wunderground v.1.15,2013-04-05 05:45:00,
2013-04-05 01:55:00,40.5,39.7,29.86,NW,319,1.0,2.0,97,0.00,,,0.02,Wunderground v.1.15,2013-04-05 05:55:00,
2013-04-05 02:00:00,40.5,39.4,29.86,NNW,338,0.0,2.0,96,0.00,,,0.02,Wunderground v.1.15,2013-04-05 06:00:00,
2013-04-05 02:05:00,40.5,39.7,29.85,NNW,338,0.0,2.0,97,0.00,,,0.02,Wunderground v.1.15,2013-04-05 06:05:00,
2013-04-05 02:10:00,40.5,39.7,29.85,NNW,336,0.0,2.0,97,0.00,,,0.02,Wunderground v.1.15,2013-04-05 06:10:00,
2013-04-05 02:15:00,40.5,39.7,29.85,NNW,346,0.0,2.0,97,0.00,,,0.02,Wunderground v.1.15,2013-04-05 06:15:00,
2013-04-05 02:25:00,40.5,39.7,29.85,NNW,341,0.0,2.0,97,0.00,,,0.02,Wunderground v.1.15,2013-04-05 06:25:00,
2013-04-05 02:30:00,40.5,39.7,29.85,NNW,340,0.0,2.0,97,0.00,,,0.02,Wunderground v.1.15,2013-04-05 06:30:00,
2013-04-05 02:35:00,40.5,39.7,29.85,NW,325,0.0,2.0,97,0.00,,,0.02,Wunderground v.1.15,2013-04-05 06:35:00,
2013-04-05 02:40:00,40.5,39.7,29.85,NNW,331,0.0,2.0,97,0.00,,,0.02,Wunderground v.1.15,2013-04-05 06:40:00,
2013-04-05 02:45:00,40.5,39.7,29.86,North,360,0.0,2.0,97,0.00,,,0.02,Wunderground v.1.15,2013-04-05 06:45:00,
2013-04-05 02:55:00,40.5,39.7,29.86,NNW,345,0.0,2.0,97,0.00,,,0.02,Wunderground v.1.15,2013-04-05 06:55:00,
2013-04-05 03:00:00,40.5,39.7,29.86,NNW,346,0.0,2.0,97,0.00,,,0.02,Wunderground v.1.15,2013-04-05 07:00:00,
2013-04-05 03:05:00,40.5,39.7,29.86,NNW,347,0.0,2.0,97,0.00,,,0.02,Wunderground v.1.15,2013-04-05 07:05:00,
2013-04-05 03:10:00,40.4,39.6,29.86,NNW,347,0.0,2.0,97,0.00,,,0.02,Wunderground v.1.15,2013-04-05 07:10:00,
2013-04-05 03:15:00,40.5,39.7,29.87,NNW,346,0.0,2.0,97,0.00,,,0.02,Wunderground v.1.15,2013-04-05 07:15:00,
2013-04-05 03:20:00,40.5,39.7,29.88,NNW,347,0.0,2.0,97,0.00,,,0.02,Wunderground v.1.15,2013-04-05 07:20:00,
2013-04-05 03:30:00,40.4,39.6,29.89,NNW,346,0.0,2.0,97,0.00,,,0.02,Wunderground v.1.15,2013-04-05 07:30:00,
2013-04-05 03:35:00,40.4,39.6,29.89,NNW,347,0.0,2.0,97,0.00,,,0.02,Wunderground v.1.15,2013-04-05 07:35:00,
2013-04-05 03:40:00,40.5,39.7,29.88,NNW,345,0.0,2.0,97,0.00,,,0.02,Wunderground v.1.15,2013-04-05 07:40:00,
2013-04-05 03:45:00,40.4,39.6,29.88,NNW,342,0.0,2.0,97,0.00,,,0.02,Wunderground v.1.15,2013-04-05 07:45:00,
2013-04-05 03:50:00,40.5,39.7,29.88,NNW,342,0.0,2.0,97,0.00,,,0.02,Wunderground v.1.15,2013-04-05 07:50:00,
2013-04-05 03:55:00,40.4,39.6,29.88,NNW,342,0.0,2.0,97,0.00,,,0.02,Wunderground v.1.15,2013-04-05 07:55:00,
2013-04-05 04:00:00,40.4,39.6,29.88,North,355,0.0,2.0,97,0.00,,,0.02,Wunderground v.1.15,2013-04-05 08:00:00,
2013-04-05 04:05:00,40.4,39.6,29.87,North,355,0.0,2.0,97,0.00,,,0.02,Wunderground v.1.15,2013-04-05 08:05:00,
2013-04-05 04:10:00,40.4,39.6,29.87,North,360,0.0,2.0,97,0.00,,,0.02,Wunderground v.1.15,2013-04-05 08:10:00,
2013-04-05 04:15:00,40.4,39.6,29.87,North,360,0.0,2.0,97,0.00,,,0.02,Wunderground v.1.15,2013-04-05 08:15:00,
2013-04-05 04:20:00,40.5,39.7,29.87,North,360,0.0,2.0,97,0.00,,,0.02,Wunderground v.1.15,2013-04-05 08:20:00,
2013-04-05 04:30:00,40.5,39.7,29.87,NNE,21,0.0,2.0,97,0.00,,,0.02,Wunderground v.1.15,2013-04-05 08:30:00,
2013-04-05 04:35:00,40.5,39.7,29.87,NNE,21,0.0,2.0,97,0.00,,,0.02,Wunderground v.1.15,2013-04-05 08:35:00,
2013-04-05 04:40:00,40.5,39.7,29.87,NNE,22,0.0,2.0,97,0.00,,,0.02,Wunderground v.1.15,2013-04-05 08:40:00,
2013-04-05 04:45:00,40.6,39.8,29.87,NNE,16,0.0,2.0,97,0.00,,,0.02,Wunderground v.1.15,2013-04-05 08:45:00,
2013-04-05 04:50:00,40.6,39.8,29.87,NNE,17,0.0,2.0,97,0.00,,,0.02,Wunderground v.1.15,2013-04-05 08:50:00,
2013-04-05 04:55:00,40.6,39.8,29.87,NNE,16,0.0,2.0,97,0.00,,,0.02,Wunderground v.1.15,2013-04-05 08:55:00,
2013-04-05 05:05:00,40.6,39.8,29.87,North,11,0.0,2.0,97,0.00,,,0.02,Wunderground v.1.15,2013-04-05 09:05:00,
2013-04-05 05:10:00,40.6,39.8,29.87,North,355,0.0,2.0,97,0.00,,,0.02,Wunderground v.1.15,2013-04-05 09:10:00,
2013-04-05 05:15:00,40.6,39.8,29.88,North,355,0.0,2.0,97,0.00,,,0.02,Wunderground v.1.15,2013-04-05 09:15:00,
2013-04-05 05:20:00,40.7,39.9,29.88,North,355,0.0,2.0,97,0.00,,,0.02,Wunderground v.1.15,2013-04-05 09:20:00,
2013-04-05 05:25:00,40.7,39.9,29.87,North,10,0.0,2.0,97,0.00,,,0.02,Wunderground v.1.15,2013-04-05 09:25:00,
2013-04-05 05:30:00,40.7,39.9,29.87,North,10,1.0,1.0,97,0.00,,,0.02,Wunderground v.1.15,2013-04-05 09:30:00,
2013-04-05 05:35:00,40.7,39.9,29.86,North,355,0.0,2.0,97,0.00,,,0.02,Wunderground v.1.15,2013-04-05 09:35:00,
2013-04-05 05:40:00,40.7,39.9,29.86,NNW,340,0.0,2.0,97,0.00,,,0.02,Wunderground v.1.15,2013-04-05 09:40:00,
2013-04-05 05:45:00,40.7,39.9,29.87,NNW,340,0.0,2.0,97,0.00,,,0.02,Wunderground v.1.15,2013-04-05 09:45:00,
2013-04-05 05:50:00,40.7,39.9,29.86,North,349,0.0,2.0,97,0.00,,,0.02,Wunderground v.1.15,2013-04-05 09:50:00,
2013-04-05 05:55:00,40.6,39.8,29.86,North,355,0.0,2.0,97,0.00,,,0.02,Wunderground v.1.15,2013-04-05 09:55:00,
2013-04-05 06:05:00,40.6,39.8,29.87,North,360,0.0,3.0,97,0.00,,,0.02,Wunderground v.1.15,2013-04-05 10:05:00,
2013-04-05 06:10:00,40.5,39.7,29.87,North,360,0.0,2.0,97,0.00,,,0.02,Wunderground v.1.15,2013-04-05 10:10:00,
2013-04-05 06:15:00,40.5,39.7,29.87,North,360,0.0,2.0,97,0.00,,,0.02,Wunderground v.1.15,2013-04-05 10:15:00,
2013-04-05 06:20:00,40.6,39.8,29.88,North,5,0.0,2.0,97,0.00,,,0.02,Wunderground v.1.15,2013-04-05 10:20:00,
2013-04-05 06:25:00,40.6,39.8,29.88,North,5,0.0,2.0,97,0.00,,,0.02,Wunderground v.1.15,2013-04-05 10:25:00,
2013-04-05 06:35:00,40.6,39.8,29.89,North,5,0.0,2.0,97,0.00,,,0.02,Wunderground v.1.15,2013-04-05 10:35:00,
2013-04-05 06:40:00,40.6,39.8,29.90,North,360,0.0,2.0,97,0.00,,,0.02,Wunderground v.1.15,2013-04-05 10:40:00,
2013-04-05 06:45:00,40.5,39.7,29.90,North,360,0.0,2.0,97,0.00,,,0.02,Wunderground v.1.15,2013-04-05 10:45:00,
2013-04-05 06:50:00,40.5,39.7,29.90,North,360,0.0,2.0,97,0.00,,,0.02,Wunderground v.1.15,2013-04-05 10:50:00,
2013-04-05 06:55:00,40.6,39.8,29.90,North,5,0.0,2.0,97,0.00,,,0.02,Wunderground v.1.15,2013-04-05 10:55:00,
2013-04-05 07:00:00,40.6,39.8,29.91,North,5,0.0,2.0,97,0.00,,,0.02,Wunderground v.1.15,2013-04-05 11:00:00,
2013-04-05 07:10:00,40.6,39.8,29.91,North,5,0.0,2.0,97,0.00,,,0.02,Wunderground v.1.15,2013-04-05 11:10:00,
2013-04-05 07:15:00,40.6,39.8,29.91,North,5,0.0,2.0,97,0.00,,,0.02,Wunderground v.1.15,2013-04-05 11:15:00,
2013-04-05 07:20:00,40.7,39.9,29.91,North,360,0.0,2.0,97,0.00,,,0.02,Wunderground v.1.15,2013-04-05 11:20:00,
2013-04-05 07:25:00,40.7,39.9,29.92,North,360,0.0,2.0,97,0.00,,,0.02,Wunderground v.1.15,2013-04-05 11:25:00,
2013-04-05 07:30:00,40.7,39.9,29.91,North,5,0.0,2.0,97,0.00,,,0.02,Wunderground v.1.15,2013-04-05 11:30:00,
2013-04-05 07:40:00,40.7,39.9,29.91,North,5,0.0,2.0,97,0.00,,,0.02,Wunderground v.1.15,2013-04-05 11:40:00,
2013-04-05 07:45:00,40.7,39.9,29.91,NNW,346,0.0,2.0,97,0.00,,,0.02,Wunderground v.1.15,2013-04-05 11:45:00,
2013-04-05 07:50:00,40.7,39.9,29.91,NNW,346,0.0,2.0,97,0.00,,,0.02,Wunderground v.1.15,2013-04-05 11:50:00,
2013-04-05 07:55:00,40.7,39.9,29.91,North,355,0.0,2.0,97,0.00,,,0.02,Wunderground v.1.15,2013-04-05 11:55:00,
2013-04-05 08:00:00,40.7,39.9,29.91,North,355,0.0,2.0,97,0.00,,,0.02,Wunderground v.1.15,2013-04-05 12:00:00,
2013-04-05 08:05:00,40.7,39.9,29.91,North,355,0.0,2.0,97,0.00,,,0.02,Wunderground v.1.15,2013-04-05 12:05:00,
2013-04-05 08:10:00,40.7,39.9,29.92,North,350,0.0,2.0,97,0.00,,,0.02,Wunderground v.1.15,2013-04-05 12:10:00,
2013-04-05 08:15:00,40.7,39.9,29.92,North,350,0.0,2.0,97,0.00,,,0.02,Wunderground v.1.15,2013-04-05 12:15:00,
2013-04-05 08:20:00,40.8,40.0,29.92,North,350,0.0,2.0,97,0.00,,,0.02,Wunderground v.1.15,2013-04-05 12:20:00,
2013-04-05 08:25:00,40.9,40.1,29.92,North,5,0.0,2.0,97,0.00,,,0.02,Wunderground v.1.15,2013-04-05 12:25:00,
2013-04-05 08:30:00,40.9,40.1,29.91,NW,304,1.0,1.0,97,0.00,,,0.02,Wunderground v.1.15,2013-04-05 12:30:00,
2013-04-05 08:35:00,40.9,40.1,29.91,NW,304,1.0,2.0,97,0.00,,,0.02,Wunderground v.1.15,2013-04-05 12:35:00,
2013-04-05 08:45:00,41.0,40.2,29.92,NNW,344,1.0,2.0,97,0.00,,,0.02,Wunderground v.1.15,2013-04-05 12:45:00,
2013-04-05 08:50:00,41.0,40.2,29.92,North,355,1.0,1.0,97,0.00,,,0.02,Wunderground v.1.15,2013-04-05 12:50:00,
2013-04-05 08:55:00,41.1,40.3,29.92,North,355,0.0,2.0,97,0.00,,,0.02,Wunderground v.1.15,2013-04-05 12:55:00,
2013-04-05 09:00:00,41.3,40.5,29.92,North,360,0.0,3.0,97,0.00,,,0.02,Wunderground v.1.15,2013-04-05 13:00:00,
2013-04-05 09:05:00,41.3,40.5,29.93,North,355,0.0,3.0,97,0.00,,,0.02,Wunderground v.1.15,2013-04-05 13:05:00,
2013-04-05 09:15:00,41.4,40.6,29.94,North,351,0.0,2.0,97,0.00,,,0.02,Wunderground v.1.15,2013-04-05 13:15:00,
2013-04-05 09:20:00,41.5,40.7,29.95,North,5,0.0,2.0,97,0.00,,,0.02,Wunderground v.1.15,2013-04-05 13:20:00,
2013-04-05 09:25:00,41.5,40.7,29.95,North,360,0.0,2.0,97,0.00,,,0.02,Wunderground v.1.15,2013-04-05 13:25:00,
2013-04-05 09:30:00,41.5,40.7,29.95,North,9,0.0,2.0,97,0.00,,,0.02,Wunderground v.1.15,2013-04-05 13:30:00,
2013-04-05 09:35:00,41.6,40.8,29.95,North,5,0.0,2.0,97,0.00,,,0.02,Wunderground v.1.15,2013-04-05 13:35:00,
2013-04-05 09:40:00,41.6,40.8,29.94,North,5,0.0,2.0,97,0.00,,,0.02,Wunderground v.1.15,2013-04-05 13:40:00,
2013-04-05 09:50:00,41.6,40.8,29.95,North,5,1.0,1.0,97,0.00,,,0.02,Wunderground v.1.15,2013-04-05 13:50:00,
2013-04-05 09:55:00,41.7,40.9,29.95,North,9,0.0,2.0,97,0.00,,,0.02,Wunderground v.1.15,2013-04-05 13:55:00,
2013-04-05 10:00:00,41.8,41.0,29.94,North,9,0.0,2.0,97,0.00,,,0.02,Wunderground v.1.15,2013-04-05 14:00:00,
2013-04-05 10:05:00,41.9,41.1,29.94,North,360,1.0,2.0,97,0.00,,,0.02,Wunderground v.1.15,2013-04-05 14:05:00,
2013-04-05 10:10:00,42.0,41.2,29.95,North,360,1.0,1.0,97,0.00,,,0.02,Wunderground v.1.15,2013-04-05 14:10:00,
2013-04-05 10:20:00,42.2,41.4,29.95,NNW,337,0.0,2.0,97,0.00,,,0.02,Wunderground v.1.15,2013-04-05 14:20:00,
2013-04-05 10:25:00,42.4,41.6,29.94,NNW,340,0.0,2.0,97,0.00,,,0.02,Wunderground v.1.15,2013-04-05 14:25:00,
2013-04-05 10:30:00,42.6,41.8,29.95,NNW,340,0.0,2.0,97,0.00,,,0.02,Wunderground v.1.15,2013-04-05 14:30:00,
2013-04-05 10:40:00,42.9,42.1,29.95,NNW,330,0.0,2.0,97,0.00,,,0.02,Wunderground v.1.15,2013-04-05 14:40:00,
2013-04-05 10:45:00,43.1,42.3,29.95,East,96,1.0,2.0,97,0.00,,,0.02,Wunderground v.1.15,2013-04-05 14:45:00,
2013-04-05 10:55:00,43.4,42.6,29.94,NE,49,0.0,2.0,97,0.00,,,0.02,Wunderground v.1.15,2013-04-05 14:55:00,
2013-04-05 11:00:00,43.6,42.8,29.94,NNW,347,0.0,2.0,97,0.00,,,0.02,Wunderground v.1.15,2013-04-05 15:00:00,
2013-04-05 11:10:00,43.7,42.9,29.94,NW,312,0.0,2.0,97,0.00,,,0.02,Wunderground v.1.15,2013-04-05 15:10:00,
2013-04-05 11:15:00,43.9,43.1,29.94,NW,324,0.0,2.0,97,0.00,,,0.02,Wunderground v.1.15,2013-04-05 15:15:00,
2013-04-05 11:20:00,44.2,43.4,29.94,ESE,107,0.0,2.0,97,0.00,,,0.02,Wunderground v.1.15,2013-04-05 15:20:00,
2013-04-05 11:30:00,44.6,43.8,29.95,East,90,0.0,2.0,97,0.00,,,0.02,Wunderground v.1.15,2013-04-05 15:30:00,
2013-04-05 11:35:00,44.7,43.9,29.95,NNE,24,0.0,2.0,97,0.00,,,0.02,Wunderground v.1.15,2013-04-05 15:35:00,
2013-04-05 11:40:00,45.0,43.9,29.95,NW,323,0.0,2.0,96,0.00,,,0.02,Wunderground v.1.15,2013-04-05 15:40:00,
2013-04-05 11:45:00,45.1,44.0,29.95,NNE,17,0.0,2.0,96,0.00,,,0.02,Wunderground v.1.15,2013-04-05 15:45:00,
2013-04-05 11:50:00,45.6,45.6,29.95,NE,47,0.0,2.0,100,0.00,,,0.02,Wunderground v.1.15,2013-04-05 15:50:00,
2013-04-05 12:00:00,47.1,45.5,29.96,NW,320,0.0,2.0,94,0.00,,,0.02,Wunderground v.1.15,2013-04-05 16:00:00,
2013-04-05 12:05:00,47.5,45.3,29.95,NW,315,1.0,2.0,92,0.00,,,0.02,Wunderground v.1.15,2013-04-05 16:05:00,
2013-04-05 12:10:00,47.9,45.4,29.95,East,101,1.0,1.0,91,0.00,,,0.02,Wunderground v.1.15,2013-04-05 16:10:00,
2013-04-05 12:15:00,48.3,45.2,29.95,East,98,0.0,2.0,89,0.00,,,0.02,Wunderground v.1.15,2013-04-05 16:15:00,
2013-04-05 12:20:00,48.7,45.6,29.95,East,80,0.0,2.0,89,0.00,,,0.02,Wunderground v.1.15,2013-04-05 16:20:00,
2013-04-05 12:30:00,49.2,45.8,29.95,NNE,26,0.0,2.0,88,0.00,,,0.02,Wunderground v.1.15,2013-04-05 16:30:00,
2013-04-05 12:40:00,49.7,45.4,29.95,ENE,63,0.0,2.0,85,0.00,,,0.02,Wunderground v.1.15,2013-04-05 16:40:00,
2013-04-05 12:45:00,50.2,46.2,29.95,ENE,69,0.0,2.0,86,0.00,,,0.02,Wunderground v.1.15,2013-04-05 16:45:00,
2013-04-05 12:50:00,50.5,46.2,29.94,ENE,69,0.0,2.0,85,0.00,,,0.02,Wunderground v.1.15,2013-04-05 16:50:00,
2013-04-05 12:55:00,51.0,46.6,29.94,ENE,68,0.0,2.0,85,0.00,,,0.02,Wunderground v.1.15,2013-04-05 16:55:00,
2013-04-05 13:00:00,52.0,47.3,29.94,ENE,68,0.0,2.0,84,0.00,,,0.02,Wunderground v.1.15,2013-04-05 17:00:00,
2013-04-05 13:05:00,52.4,47.4,29.93,ENE,75,0.0,2.0,83,0.00,,,0.02,Wunderground v.1.15,2013-04-05 17:05:00,
2013-04-05 13:10:00,53.0,48.0,29.94,ENE,60,0.0,2.0,83,0.00,,,0.02,Wunderground v.1.15,2013-04-05 17:10:00,
2013-04-05 13:15:00,53.3,47.9,29.94,ENE,65,0.0,2.0,82,0.00,,,0.02,Wunderground v.1.15,2013-04-05 17:15:00,
2013-04-05 13:20:00,53.0,47.3,29.94,NE,39,0.0,2.0,81,0.00,,,0.02,Wunderground v.1.15,2013-04-05 17:20:00,
2013-04-05 13:25:00,52.9,46.9,29.94,NNE,19,0.0,2.0,80,0.00,,,0.02,Wunderground v.1.15,2013-04-05 17:25:00,
2013-04-05 13:35:00,53.3,47.6,29.92,North,355,0.0,2.0,81,0.00,,,0.02,Wunderground v.1.15,2013-04-05 17:35:00,
2013-04-05 13:40:00,54.0,48.0,29.93,ENE,76,0.0,2.0,80,0.00,,,0.02,Wunderground v.1.15,2013-04-05 17:40:00,
2013-04-05 13:45:00,54.4,46.6,29.92,ENE,78,1.0,2.0,75,0.00,,,0.02,Wunderground v.1.15,2013-04-05 17:45:00,
2013-04-05 13:50:00,54.5,47.4,29.92,East,91,1.0,1.0,77,0.00,,,0.02,Wunderground v.1.15,2013-04-05 17:50:00,
2013-04-05 14:00:00,55.0,47.2,29.92,ESE,109,1.0,1.0,75,0.00,,,0.02,Wunderground v.1.15,2013-04-05 18:00:00,
2013-04-05 14:10:00,56.0,47.8,29.92,NE,37,1.0,1.0,74,0.00,,,0.02,Wunderground v.1.15,2013-04-05 18:10:00,
2013-04-05 14:15:00,56.3,47.4,29.92,NNE,32,0.0,2.0,72,0.00,,,0.02,Wunderground v.1.15,2013-04-05 18:15:00,
2013-04-05 14:20:00,57.1,48.9,29.91,North,5,0.0,2.0,74,0.00,,,0.02,Wunderground v.1.15,2013-04-05 18:20:00,
2013-04-05 14:25:00,56.6,46.5,29.91,NNW,336,0.0,2.0,69,0.00,,,0.02,Wunderground v.1.15,2013-04-05 18:25:00,
2013-04-05 14:35:00,56.9,48.0,29.90,NNW,329,0.0,2.0,72,0.00,,,0.02,Wunderground v.1.15,2013-04-05 18:35:00,
2013-04-05 14:40:00,57.6,47.5,29.90,WNW,296,0.0,2.0,69,0.00,,,0.02,Wunderground v.1.15,2013-04-05 18:40:00,
2013-04-05 14:45:00,57.6,48.3,29.90,ESE,108,0.0,2.0,71,0.00,,,0.02,Wunderground v.1.15,2013-04-05 18:45:00,
2013-04-05 14:50:00,58.2,47.3,29.90,ENE,76,0.0,2.0,67,0.00,,,0.02,Wunderground v.1.15,2013-04-05 18:50:00,
2013-04-05 14:55:00,59.0,48.1,29.90,North,355,0.0,2.0,67,0.00,,,0.02,Wunderground v.1.15,2013-04-05 18:55:00,
2013-04-05 15:00:00,58.2,47.3,29.90,NW,322,0.0,2.0,67,0.00,,,0.02,Wunderground v.1.15,2013-04-05 19:00:00,
2013-04-05 15:10:00,58.6,47.7,29.90,NW,311,0.0,2.0,67,0.00,,,0.02,Wunderground v.1.15,2013-04-05 19:10:00,
2013-04-05 15:15:00,58.4,47.9,29.90,ENE,74,0.0,2.0,68,0.00,,,0.02,Wunderground v.1.15,2013-04-05 19:15:00,
2013-04-05 15:20:00,58.7,47.4,29.90,NW,306,0.0,2.0,66,0.00,,,0.02,Wunderground v.1.15,2013-04-05 19:20:00,
2013-04-05 15:25:00,58.3,48.6,29.89,NW,306,0.0,2.0,70,0.00,,,0.02,Wunderground v.1.15,2013-04-05 19:25:00,
2013-04-05 15:30:00,58.9,48.0,29.89,North,355,0.0,2.0,67,0.00,,,0.02,Wunderground v.1.15,2013-04-05 19:30:00,
2013-04-05 15:35:00,58.9,47.6,29.89,East,87,0.0,2.0,66,0.00,,,0.02,Wunderground v.1.15,2013-04-05 19:35:00,
2013-04-05 15:45:00,59.0,47.2,29.89,NW,306,0.0,2.0,65,0.00,,,0.02,Wunderground v.1.15,2013-04-05 19:45:00,
2013-04-05 15:50:00,59.7,46.7,29.89,WNW,295,0.0,0.0,62,0.00,,,0.02,Wunderground v.1.15,2013-04-05 19:50:00,
2013-04-05 15:55:00,59.3,47.1,29.88,NNW,333,0.0,0.0,64,0.00,,,0.02,Wunderground v.1.15,2013-04-05 19:55:00,
2013-04-05 16:00:00,59.6,46.6,29.88,NW,316,0.0,0.0,62,0.00,,,0.02,Wunderground v.1.15,2013-04-05 20:00:00,
2013-04-05 16:05:00,59.6,47.0,29.88,NW,318,0.0,0.0,63,0.00,,,0.02,Wunderground v.1.15,2013-04-05 20:05:00,
2013-04-05 16:15:00,59.8,47.2,29.88,North,360,0.0,0.0,63,0.00,,,0.02,Wunderground v.1.15,2013-04-05 20:15:00,
2013-04-05 16:20:00,59.5,46.9,29.88,North,360,0.0,0.0,63,0.00,,,0.02,Wunderground v.1.15,2013-04-05 20:20:00,
2013-04-05 16:25:00,60.0,47.4,29.88,NNW,342,0.0,0.0,63,0.00,,,0.02,Wunderground v.1.15,2013-04-05 20:25:00,
2013-04-05 16:30:00,60.1,46.6,29.88,WNW,302,0.0,0.0,61,0.00,,,0.02,Wunderground v.1.15,2013-04-05 20:30:00,
2013-04-05 16:35:00,60.0,47.4,29.88,WNW,302,0.0,0.0,63,0.00,,,0.02,Wunderground v.1.15,2013-04-05 20:35:00,
2013-04-05 16:40:00,60.1,47.9,29.88,North,9,0.0,1.0,64,0.00,,,0.02,Wunderground v.1.15,2013-04-05 20:40:00,
2013-04-05 16:50:00,60.2,47.6,29.88,North,351,0.0,1.0,63,0.00,,,0.02,Wunderground v.1.15,2013-04-05 20:50:00,
2013-04-05 16:55:00,60.2,46.7,29.88,North,355,0.0,1.0,61,0.00,,,0.02,Wunderground v.1.15,2013-04-05 20:55:00,
2013-04-05 17:00:00,60.3,46.8,29.88,North,5,0.0,1.0,61,0.00,,,0.02,Wunderground v.1.15,2013-04-05 21:00:00,
2013-04-05 17:05:00,60.4,47.3,29.88,NNW,348,1.0,1.0,62,0.00,,,0.02,Wunderground v.1.15,2013-04-05 21:05:00,
2013-04-05 17:10:00,60.4,46.9,29.88,North,355,0.0,1.0,61,0.00,,,0.02,Wunderground v.1.15,2013-04-05 21:10:00,
2013-04-05 17:20:00,60.5,47.0,29.88,WNW,294,0.0,1.0,61,0.00,,,0.02,Wunderground v.1.15,2013-04-05 21:20:00,
2013-04-05 17:25:00,60.5,47.0,29.88,WNW,294,0.0,1.0,61,0.00,,,0.02,Wunderground v.1.15,2013-04-05 21:25:00,
2013-04-05 17:30:00,60.4,47.3,29.88,WNW,294,0.0,1.0,62,0.00,,,0.02,Wunderground v.1.15,2013-04-05 21:30:00,
2013-04-05 17:35:00,60.4,47.7,29.89,WNW,294,0.0,1.0,63,0.00,,,0.02,Wunderground v.1.15,2013-04-05 21:35:00,
2013-04-05 17:40:00,60.2,47.1,29.89,WNW,294,0.0,1.0,62,0.00,,,0.02,Wunderground v.1.15,2013-04-05 21:40:00,
2013-04-05 17:45:00,60.1,47.5,29.89,WNW,294,0.0,1.0,63,0.00,,,0.02,Wunderground v.1.15,2013-04-05 21:45:00,
2013-04-05 17:50:00,60.0,47.4,29.88,WNW,294,0.0,1.0,63,0.00,,,0.02,Wunderground v.1.15,2013-04-05 21:50:00,
2013-04-05 17:55:00,59.9,47.7,29.89,WNW,294,0.0,1.0,64,0.00,,,0.02,Wunderground v.1.15,2013-04-05 21:55:00,
2013-04-05 18:00:00,59.9,47.7,29.89,WNW,294,0.0,1.0,64,0.00,,,0.02,Wunderground v.1.15,2013-04-05 22:00:00,
2013-04-05 18:05:00,59.9,47.3,29.89,WNW,294,0.0,1.0,63,0.00,,,0.02,Wunderground v.1.15,2013-04-05 22:05:00,
2013-04-05 18:10:00,59.8,47.6,29.89,WNW,294,0.0,1.0,64,0.00,,,0.02,Wunderground v.1.15,2013-04-05 22:10:00,
2013-04-05 18:15:00,59.8,47.6,29.89,WNW,294,0.0,1.0,64,0.00,,,0.02,Wunderground v.1.15,2013-04-05 22:15:00,
2013-04-05 18:25:00,59.8,47.6,29.89,WNW,294,0.0,1.0,64,0.00,,,0.02,Wunderground v.1.15,2013-04-05 22:25:00,
2013-04-05 18:30:00,59.8,47.6,29.89,WNW,294,0.0,1.0,64,0.00,,,0.02,Wunderground v.1.15,2013-04-05 22:30:00,
2013-04-05 18:35:00,59.9,48.1,29.90,WNW,294,0.0,1.0,65,0.00,,,0.02,Wunderground v.1.15,2013-04-05 22:35:00,
2013-04-05 18:40:00,59.8,48.0,29.90,WNW,294,0.0,1.0,65,0.00,,,0.02,Wunderground v.1.15,2013-04-05 22:40:00,
2013-04-05 18:45:00,59.8,48.4,29.90,WNW,294,0.0,1.0,66,0.00,,,0.02,Wunderground v.1.15,2013-04-05 22:45:00,
2013-04-05 18:55:00,59.7,48.3,29.90,WNW,294,0.0,1.0,66,0.00,,,0.02,Wunderground v.1.15,2013-04-05 22:55:00,
2013-04-05 19:00:00,59.6,48.2,29.90,WNW,294,0.0,1.0,66,0.00,,,0.02,Wunderground v.1.15,2013-04-05 23:00:00,
2013-04-05 19:05:00,59.5,48.5,29.90,WNW,294,0.0,1.0,67,0.00,,,0.02,Wunderground v.1.15,2013-04-05 23:05:00,
2013-04-05 19:10:00,59.4,48.4,29.90,WNW,294,0.0,1.0,67,0.00,,,0.02,Wunderground v.1.15,2013-04-05 23:10:00,
2013-04-05 19:15:00,59.3,48.7,29.90,WNW,294,0.0,1.0,68,0.00,,,0.02,Wunderground v.1.15,2013-04-05 23:15:00,
2013-04-05 19:25:00,59.0,49.2,29.91,WNW,294,0.0,1.0,70,0.00,,,0.02,Wunderground v.1.15,2013-04-05 23:25:00,
2013-04-05 19:35:00,58.5,49.1,29.91,WNW,294,0.0,1.0,71,0.00,,,0.02,Wunderground v.1.15,2013-04-05 23:35:00,
2013-04-05 19:45:00,57.7,49.1,29.91,WNW,294,0.0,1.0,73,0.00,,,0.02,Wunderground v.1.15,2013-04-05 23:45:00,
2013-04-05 19:55:00,57.1,49.2,29.92,WNW,294,0.0,1.0,75,0.00,,,0.02,Wunderground v.1.15,2013-04-05 23:55:00,
2013-04-05 20:05:00,56.7,48.9,29.92,WNW,294,0.0,1.0,75,0.00,,,0.02,Wunderground v.1.15,2013-04-06 00:05:00,
2013-04-05 20:15:00,56.1,48.6,29.92,WNW,294,0.0,1.0,76,0.00,,,0.02,Wunderground v.1.15,2013-04-06 00:15:00,
2013-04-05 20:25:00,55.3,48.9,29.93,WNW,294,0.0,1.0,79,0.00,,,0.02,Wunderground v.1.15,2013-04-06 00:25:00,
2013-04-05 20:35:00,54.6,48.2,29.93,WNW,294,0.0,1.0,79,0.00,,,0.02,Wunderground v.1.15,2013-04-06 00:35:00,
2013-04-05 20:45:00,54.1,48.1,29.94,WNW,294,0.0,1.0,80,0.00,,,0.02,Wunderground v.1.15,2013-04-06 00:45:00,
2013-04-05 20:50:00,53.9,48.2,29.95,WNW,294,0.0,1.0,81,0.00,,,0.02,Wunderground v.1.15,2013-04-06 00:50:00,
2013-04-05 21:00:00,53.4,47.7,29.95,WNW,294,0.0,1.0,81,0.00,,,0.02,Wunderground v.1.15,2013-04-06 01:00:00,
2013-04-05 21:10:00,52.9,47.6,29.96,WNW,294,0.0,1.0,82,0.00,,,0.02,Wunderground v.1.15,2013-04-06 01:10:00,
2013-04-05 21:20:00,52.4,47.4,29.96,WNW,294,0.0,1.0,83,0.00,,,0.02,Wunderground v.1.15,2013-04-06 01:20:00,
2013-04-05 21:25:00,52.2,47.2,29.96,WNW,294,0.0,1.0,83,0.00,,,0.02,Wunderground v.1.15,2013-04-06 01:25:00,
2013-04-05 21:30:00,52.0,47.3,29.97,WNW,294,0.0,1.0,84,0.00,,,0.02,Wunderground v.1.15,2013-04-06 01:30:00,
2013-04-05 21:35:00,51.8,47.1,29.97,WNW,294,0.0,1.0,84,0.00,,,0.02,Wunderground v.1.15,2013-04-06 01:35:00,
2013-04-05 21:45:00,51.5,46.8,29.98,WNW,294,0.0,1.0,84,0.00,,,0.02,Wunderground v.1.15,2013-04-06 01:45:00,
2013-04-05 21:50:00,51.4,46.7,29.98,WNW,294,0.0,1.0,84,0.00,,,0.02,Wunderground v.1.15,2013-04-06 01:50:00,
2013-04-05 22:00:00,51.0,46.6,29.99,WNW,294,0.0,1.0,85,0.00,,,0.02,Wunderground v.1.15,2013-04-06 02:00:00,
2013-04-05 22:10:00,50.8,46.5,29.98,WNW,294,0.0,1.0,85,0.00,,,0.02,Wunderground v.1.15,2013-04-06 02:10:00,
2013-04-05 22:20:00,50.5,46.2,29.99,WNW,294,0.0,1.0,85,0.00,,,0.02,Wunderground v.1.15,2013-04-06 02:20:00,
2013-04-05 22:30:00,50.2,46.2,29.99,WNW,294,0.0,1.0,86,0.00,,,0.02,Wunderground v.1.15,2013-04-06 02:30:00,
2013-04-05 22:35:00,50.0,46.0,29.99,WNW,294,0.0,1.0,86,0.00,,,0.02,Wunderground v.1.15,2013-04-06 02:35:00,
2013-04-05 22:45:00,49.7,45.7,29.99,WNW,294,0.0,1.0,86,0.00,,,0.02,Wunderground v.1.15,2013-04-06 02:45:00,
2013-04-05 22:50:00,49.5,45.5,29.99,WNW,294,0.0,1.0,86,0.00,,,0.02,Wunderground v.1.15,2013-04-06 02:50:00,
2013-04-05 23:00:00,49.1,45.4,29.99,WNW,294,0.0,1.0,87,0.00,,,0.02,Wunderground v.1.15,2013-04-06 03:00:00,
2013-04-05 23:10:00,48.7,45.3,29.99,WNW,294,0.0,1.0,88,0.00,,,0.02,Wunderground v.1.15,2013-04-06 03:10:00,
2013-04-05 23:20:00,48.3,44.9,30.00,WNW,294,0.0,1.0,88,0.00,,,0.02,Wunderground v.1.15,2013-04-06 03:20:00,
2013-04-05 23:30:00,48.0,44.9,30.00,WNW,294,0.0,1.0,89,0.00,,,0.02,Wunderground v.1.15,2013-04-06 03:30:00,
2013-04-05 23:40:00,47.8,44.7,30.00,WNW,294,0.0,1.0,89,0.00,,,0.02,Wunderground v.1.15,2013-04-06 03:40:00,
2013-04-05 23:50:00,47.6,44.5,30.00,WNW,294,0.0,1.0,89,0.00,,,0.02,Wunderground v.1.15,2013-04-06 03:50:00,